• In Uzbekistan
  • List of Countries
  • For 7 days
  • Water Temperature
  • Satellite Maps
  • Weather Map
  • Weather Widgets
  • user-avatar
    Login

    Hourly Weather Bregenz

    Today, 18 July, Thursday

    Time Temperature Precipitation Wind Pressure Humidity
    00:00 +11°C° 0 mm 1 mps 645 mmHg 84%
    01:00 +11°C° 0 mm 1 mps 645 mmHg 83%
    02:00 +10°C° 0.1 mm 1 mps 645 mmHg 83%
    03:00 +10°C° 0.1 mm 1 mps 645 mmHg 83%
    04:00 +10°C° 0.1 mm 1 mps 645 mmHg 83%
    05:00 +11°C° 0 mm 1 mps 645 mmHg 81%
    06:00 +12°C° 0 mm 1 mps 645 mmHg 80%
    07:00 +13°C° 0 mm 1 mps 646 mmHg 78%
    08:00 +15°C° 0.1 mm 1 mps 646 mmHg 71%
    09:00 +16°C° 0.1 mm 1 mps 647 mmHg 64%
    10:00 +18°C° 0.1 mm 2 mps 648 mmHg 57%
    11:00 +18°C° 0.1 mm 2 mps 648 mmHg 53%
    12:00 +19°C° 0.1 mm 2 mps 648 mmHg 49%
    13:00 +20°C° 0.1 mm 3 mps 648 mmHg 45%
    14:00 +20°C° 0 mm 2 mps 648 mmHg 46%
    15:00 +20°C° 0 mm 2 mps 648 mmHg 48%
    16:00 +20°C° 0 mm 2 mps 648 mmHg 49%
    17:00 +19°C° 0 mm 1 mps 648 mmHg 57%
    18:00 +18°C° 0 mm 1 mps 648 mmHg 65%
    19:00 +15°C° 0 mm 0 mps 647 mmHg 73%
    20:00 +15°C° 0 mm 1 mps 647 mmHg 75%
    21:00 +13°C° 0 mm 1 mps 647 mmHg 77%
    22:00 +12°C° 0 mm 1 mps 647 mmHg 78%
    23:00 +12°C° 0 mm 1 mps 647 mmHg 78%

    Tomorrow, 19 July, Friday

    Time Temperature Precipitation Wind Pressure Humidity
    00:00 +11°C° 0 mm 1 mps 647 mmHg 77%
    01:00 +11°C° 0 mm 1 mps 647 mmHg 77%
    02:00 +11°C° 0 mm 1 mps 647 mmHg 78%
    03:00 +11°C° 0 mm 1 mps 647 mmHg 78%
    04:00 +10°C° 0 mm 1 mps 647 mmHg 79%
    05:00 +11°C° 0 mm 1 mps 647 mmHg 77%
    06:00 +13°C° 0 mm 1 mps 648 mmHg 75%
    07:00 +13°C° 0 mm 0 mps 648 mmHg 74%
    08:00 +15°C° 0 mm 1 mps 649 mmHg 68%
    09:00 +18°C° 0 mm 1 mps 649 mmHg 63%
    10:00 +20°C° 0 mm 1 mps 650 mmHg 57%
    11:00 +20°C° 0 mm 1 mps 650 mmHg 57%
    12:00 +21°C° 0 mm 1 mps 650 mmHg 57%
    13:00 +21°C° 0 mm 1 mps 650 mmHg 56%
    14:00 +21°C° 0.3 mm 1 mps 650 mmHg 58%
    15:00 +21°C° 0.3 mm 1 mps 650 mmHg 60%
    16:00 +21°C° 0.3 mm 1 mps 650 mmHg 62%
    17:00 +20°C° 0.3 mm 1 mps 650 mmHg 68%
    18:00 +17°C° 0.3 mm 0 mps 650 mmHg 75%
    19:00 +16°C° 0.3 mm 0 mps 650 mmHg 81%
    20:00 +15°C° 0 mm 0 mps 649 mmHg 83%
    21:00 +14°C° 0 mm 1 mps 649 mmHg 86%
    22:00 +13°C° 0 mm 1 mps 648 mmHg 88%
    23:00 +12°C° 0 mm 1 mps 648 mmHg 88%

    Day after tomorrow, 20 July, Saturday

    Time Temperature Precipitation Wind Pressure Humidity
    00:00 +12°C° 0 mm 1 mps 648 mmHg 89%
    01:00 +12°C° 0 mm 1 mps 648 mmHg 89%
    02:00 +12°C° 0 mm 1 mps 648 mmHg 89%
    03:00 +10°C° 0 mm 2 mps 648 mmHg 89%
    04:00 +10°C° 0 mm 2 mps 648 mmHg 89%
    05:00 +12°C° 0 mm 1 mps 648 mmHg 86%
    06:00 +13°C° 0 mm 1 mps 649 mmHg 84%
    07:00 +15°C° 0 mm 1 mps 649 mmHg 81%
    08:00 +18°C° 0 mm 1 mps 650 mmHg 72%
    09:00 +20°C° 0 mm 1 mps 651 mmHg 63%
    10:00 +23°C° 0 mm 1 mps 651 mmHg 54%
    11:00 +24°C° 0 mm 1 mps 652 mmHg 51%
    12:00 +24°C° 0 mm 1 mps 652 mmHg 49%
    13:00 +25°C° 0 mm 1 mps 652 mmHg 46%
    14:00 +25°C° 0.1 mm 1 mps 652 mmHg 47%
    15:00 +25°C° 0.1 mm 1 mps 652 mmHg 48%
    16:00 +25°C° 0.1 mm 2 mps 652 mmHg 49%
    17:00 +23°C° 0.3 mm 1 mps 652 mmHg 57%
    18:00 +22°C° 0.3 mm 1 mps 651 mmHg 65%
    19:00 +21°C° 0.3 mm 1 mps 651 mmHg 73%
    20:00 +19°C° 0 mm 1 mps 651 mmHg 74%
    21:00 +18°C° 0 mm 1 mps 651 mmHg 76%
    22:00 +15°C° 0 mm 2 mps 651 mmHg 77%
    23:00 +15°C° 0 mm 2 mps 651 mmHg 77%

    21 July, Sunday

    Time Temperature Precipitation Wind Pressure Humidity
    00:00 +15°C° 0 mm 2 mps 651 mmHg 76%
    01:00 +14°C° 0 mm 2 mps 651 mmHg 76%
    02:00 +14°C° 0 mm 2 mps 651 mmHg 77%
    03:00 +14°C° 0 mm 1 mps 651 mmHg 77%
    04:00 +13°C° 0 mm 1 mps 651 mmHg 78%
    05:00 +14°C° 0.2 mm 1 mps 651 mmHg 78%
    06:00 +15°C° 0.2 mm 1 mps 652 mmHg 79%
    07:00 +15°C° 0.2 mm 0 mps 652 mmHg 79%
    08:00 +18°C° 0.3 mm 1 mps 653 mmHg 76%
    09:00 +20°C° 0.3 mm 1 mps 653 mmHg 73%
    10:00 +21°C° 0.3 mm 1 mps 654 mmHg 70%
    11:00 +22°C° 0.3 mm 1 mps 654 mmHg 66%
    12:00 +23°C° 0.3 mm 1 mps 654 mmHg 61%
    13:00 +24°C° 0.3 mm 2 mps 654 mmHg 57%
    14:00 +24°C° 0.1 mm 2 mps 654 mmHg 58%
    15:00 +23°C° 0.1 mm 2 mps 654 mmHg 60%
    16:00 +23°C° 0.1 mm 2 mps 654 mmHg 61%
    17:00 +22°C° 0.1 mm 1 mps 654 mmHg 68%
    18:00 +21°C° 0.1 mm 1 mps 654 mmHg 75%
    19:00 +18°C° 0.1 mm 0 mps 654 mmHg 82%
    20:00 +19°C° 0.1 mm 1 mps 654 mmHg 84%
    21:00 +16°C° 0.1 mm 1 mps 653 mmHg 86%
    22:00 +15°C° 0.1 mm 1 mps 653 mmHg 89%
    23:00 +14°C° 0 mm 1 mps 653 mmHg 89%

    22 July, Monday

    Time Temperature Precipitation Wind Pressure Humidity
    00:00 +14°C° 0 mm 1 mps 653 mmHg 90%
    01:00 +14°C° 0 mm 1 mps 653 mmHg 91%
    02:00 +13°C° 0 mm 1 mps 652 mmHg 90%
    03:00 +13°C° 0 mm 1 mps 652 mmHg 90%
    04:00 +13°C° 0 mm 1 mps 652 mmHg 90%
    05:00 +14°C° 0 mm 1 mps 653 mmHg 87%
    06:00 +15°C° 0 mm 1 mps 653 mmHg 85%
    07:00 +18°C° 0 mm 1 mps 654 mmHg 82%
    08:00 +20°C° 0 mm 1 mps 654 mmHg 74%
    09:00 +22°C° 0 mm 1 mps 655 mmHg 66%
    10:00 +24°C° 0 mm 1 mps 656 mmHg 57%
    11:00 +25°C° 0 mm 1 mps 656 mmHg 54%
    12:00 +26°C° 0 mm 1 mps 655 mmHg 52%
    13:00 +26°C° 0 mm 2 mps 655 mmHg 49%
    14:00 +26°C° 0 mm 2 mps 655 mmHg 50%
    15:00 +26°C° 0 mm 2 mps 655 mmHg 51%
    16:00 +26°C° 0 mm 2 mps 655 mmHg 52%
    17:00 +25°C° 0 mm 2 mps 654 mmHg 61%
    18:00 +23°C° 0 mm 1 mps 654 mmHg 71%
    19:00 +22°C° 0 mm 1 mps 654 mmHg 80%
    20:00 +20°C° 0 mm 1 mps 653 mmHg 84%
    21:00 +19°C° 0 mm 1 mps 653 mmHg 87%
    22:00 +16°C° 0 mm 1 mps 653 mmHg 91%
    23:00 +16°C° 0 mm 1 mps 653 mmHg 90%

    23 July, Tuesday

    Time Temperature Precipitation Wind Pressure Humidity
    00:00 +15°C° 0 mm 1 mps 653 mmHg 89%
    01:00 +15°C° 0 mm 1 mps 652 mmHg 88%
    02:00 +15°C° 0 mm 1 mps 652 mmHg 87%
    03:00 +15°C° 0 mm 1 mps 652 mmHg 87%
    04:00 +14°C° 0 mm 1 mps 651 mmHg 86%
    05:00 +15°C° 0 mm 1 mps 652 mmHg 84%
    06:00 +18°C° 0 mm 1 mps 652 mmHg 81%
    07:00 +19°C° 0 mm 1 mps 652 mmHg 78%
    08:00 +21°C° 0 mm 1 mps 653 mmHg 71%
    09:00 +22°C° 0 mm 1 mps 653 mmHg 63%
    10:00 +24°C° 0 mm 1 mps 654 mmHg 56%
    11:00 +25°C° 0 mm 1 mps 654 mmHg 53%
    12:00 +26°C° 0 mm 1 mps 654 mmHg 50%
    13:00 +27°C° 0 mm 2 mps 654 mmHg 48%
    14:00 +27°C° 0 mm 2 mps 653 mmHg 48%
    15:00 +27°C° 0 mm 2 mps 653 mmHg 49%
    16:00 +27°C° 0 mm 2 mps 653 mmHg 49%
    17:00 +25°C° 0 mm 2 mps 653 mmHg 59%
    18:00 +24°C° 0 mm 1 mps 652 mmHg 68%
    19:00 +22°C° 0 mm 1 mps 652 mmHg 77%
    20:00 +21°C° 0 mm 1 mps 651 mmHg 81%
    21:00 +19°C° 0 mm 1 mps 651 mmHg 85%
    22:00 +16°C° 0 mm 1 mps 651 mmHg 89%
    23:00 +16°C° 0 mm 1 mps 650 mmHg 87%
    Show more